LGX43B LIMF-LIEE

Flight info

Callsign LGX43B
Flight time 1h 20m
Altitude 35000
Route LAGEN DCT ANAKI DCT BAKRO DCT IBROS DCT BATOX DCT ALEDI M126 LEDRO
Aircraft A320/M-SDE2FGHIJ1RWXY/HB1

Departure

Time 2026-05-08 21:01
Airport Turin Airport (LIMF)

Arrival

Time 2026-05-08 22:21
Airport Cagliari Elmas Airport (LIEE)
Time Latitude Longitude Altitude Speed Heading
2026-05-08 20:45 45.18798 7.64547 948 ft 0 kts 223°
2026-05-08 20:55 45.18793 7.64551 947 ft 2 kts 115°
2026-05-08 20:55 45.18790 7.64610 945 ft 3 kts 126°
2026-05-08 20:55 45.18749 7.64630 943 ft 8 kts 177°
2026-05-08 20:55 45.18682 7.64635 942 ft 11 kts 166°
2026-05-08 20:56 45.18668 7.64641 941 ft 0 kts 153°
2026-05-08 20:56 45.18667 7.64642 941 ft 0 kts 153°
2026-05-08 20:58 45.18666 7.64642 941 ft 0 kts 153°
2026-05-08 20:58 45.18636 7.64677 939 ft 11 kts 127°
2026-05-08 20:58 45.18631 7.64806 937 ft 15 kts 64°
2026-05-08 20:58 45.18704 7.64878 937 ft 5 kts
2026-05-08 20:59 45.18738 7.64879 937 ft 0 kts
2026-05-08 21:00 45.18747 7.64879 938 ft 12 kts
2026-05-08 21:00 45.19083 7.64896 946 ft 82 kts
2026-05-08 21:00 45.19864 7.64946 965 ft 141 kts
2026-05-08 21:01 45.20962 7.65017 1286 ft 162 kts
2026-05-08 21:01 45.22104 7.65098 1874 ft 165 kts
2026-05-08 21:01 45.23254 7.65166 2528 ft 167 kts
2026-05-08 21:01 45.24453 7.65232 3060 ft 177 kts
2026-05-08 21:02 45.25719 7.65355 3403 ft 192 kts 13°
2026-05-08 21:02 45.26914 7.66316 3706 ft 209 kts 48°
2026-05-08 21:02 45.27515 7.68252 4016 ft 227 kts 85°
2026-05-08 21:02 45.27238 7.70542 4352 ft 246 kts 108°
2026-05-08 21:03 45.26673 7.72874 5023 ft 252 kts 109°
2026-05-08 21:03 45.26096 7.75284 5455 ft 269 kts 108°
2026-05-08 21:03 45.25337 7.77737 6076 ft 277 kts 128°
2026-05-08 21:03 45.23884 7.79495 6863 ft 278 kts 150°
2026-05-08 21:04 45.22123 7.80858 7672 ft 281 kts 154°
2026-05-08 21:04 45.20353 7.82166 8458 ft 284 kts 153°
2026-05-08 21:04 45.18576 7.83531 9286 ft 287 kts 152°
2026-05-08 21:04 45.16846 7.84914 10107 ft 288 kts 151°
2026-05-08 21:05 45.15093 7.86352 10784 ft 296 kts 150°
2026-05-08 21:05 45.13275 7.87867 11150 ft 313 kts 150°
2026-05-08 21:05 45.11349 7.89485 11473 ft 331 kts 150°
2026-05-08 21:05 45.09306 7.91208 11777 ft 348 kts 150°
2026-05-08 21:06 45.07210 7.92980 12085 ft 363 kts 150°
2026-05-08 21:06 45.05001 7.94853 12646 ft 369 kts 150°
2026-05-08 21:06 45.02840 7.96688 13303 ft 372 kts 150°
2026-05-08 21:06 45.00634 7.98558 13836 ft 376 kts 150°
2026-05-08 21:07 44.98389 8.00459 14325 ft 380 kts 150°
2026-05-08 21:07 44.96138 8.02364 14964 ft 382 kts 150°
2026-05-08 21:07 44.93856 8.04292 15553 ft 385 kts 150°
2026-05-08 21:07 44.91580 8.06213 16097 ft 389 kts 150°
2026-05-08 21:08 44.89523 8.07948 16568 ft 392 kts 150°
2026-05-08 21:08 44.87410 8.09730 17041 ft 395 kts 150°
2026-05-08 21:08 44.85166 8.11619 17532 ft 398 kts 150°
2026-05-08 21:08 44.82711 8.13684 18052 ft 401 kts 150°
2026-05-08 21:09 44.80300 8.15710 18544 ft 404 kts 150°
2026-05-08 21:09 44.77837 8.17777 19026 ft 407 kts 150°
2026-05-08 21:09 44.75396 8.19824 19486 ft 410 kts 150°
2026-05-08 21:09 44.72929 8.21891 19948 ft 413 kts 150°
2026-05-08 21:10 44.70390 8.24017 20444 ft 415 kts 150°
2026-05-08 21:10 44.67865 8.26128 20895 ft 418 kts 150°
2026-05-08 21:10 44.65279 8.28287 21276 ft 422 kts 150°
2026-05-08 21:10 44.62680 8.30457 21610 ft 427 kts 150°
2026-05-08 21:11 44.60044 8.32657 21993 ft 431 kts 150°
2026-05-08 21:11 44.57459 8.34811 22394 ft 434 kts 150°
2026-05-08 21:11 44.54940 8.36909 22763 ft 436 kts 150°
2026-05-08 21:11 44.52277 8.39123 23141 ft 439 kts 150°
2026-05-08 21:12 44.49495 8.41435 23525 ft 442 kts 150°
2026-05-08 21:12 44.46697 8.43755 23901 ft 445 kts 150°
2026-05-08 21:12 44.44025 8.45969 24252 ft 447 kts 150°
2026-05-08 21:12 44.41335 8.48279 24595 ft 450 kts 148°
2026-05-08 21:13 44.38751 8.50767 24931 ft 453 kts 144°
2026-05-08 21:13 44.36270 8.53459 25256 ft 456 kts 141°
2026-05-08 21:13 44.33823 8.56340 25577 ft 459 kts 141°
2026-05-08 21:13 44.31131 8.59534 25921 ft 461 kts 141°
2026-05-08 21:14 44.28501 8.62649 26244 ft 463 kts 141°
2026-05-08 21:14 44.25845 8.65784 26563 ft 465 kts 141°
2026-05-08 21:14 44.23323 8.68754 26841 ft 468 kts 142°
2026-05-08 21:14 44.20765 8.71763 27098 ft 470 kts 142°
2026-05-08 21:15 44.18050 8.74944 27387 ft 472 kts 142°
2026-05-08 21:15 44.15518 8.77901 27642 ft 473 kts 142°
2026-05-08 21:15 44.12869 8.80993 27887 ft 475 kts 142°
2026-05-08 21:15 44.10176 8.84139 28136 ft 477 kts 142°
2026-05-08 21:16 44.07592 8.87156 28431 ft 477 kts 142°
2026-05-08 21:16 44.04993 8.90187 28776 ft 476 kts 142°
2026-05-08 21:16 44.02445 8.93155 29109 ft 474 kts 142°
2026-05-08 21:16 43.99913 8.96100 29425 ft 474 kts 142°
2026-05-08 21:17 43.97409 8.99010 29731 ft 473 kts 142°
2026-05-08 21:17 43.94878 9.01949 30035 ft 472 kts 142°
2026-05-08 21:17 43.92361 9.04866 30334 ft 472 kts 142°
2026-05-08 21:17 43.89866 9.07757 30620 ft 471 kts 142°
2026-05-08 21:18 43.87336 9.10684 30902 ft 471 kts 142°
2026-05-08 21:18 43.84824 9.13587 31178 ft 470 kts 142°
2026-05-08 21:18 43.82325 9.16471 31450 ft 470 kts 142°
2026-05-08 21:18 43.79725 9.19468 31728 ft 470 kts 142°
2026-05-08 21:19 43.77048 9.22551 31992 ft 470 kts 142°
2026-05-08 21:19 43.72008 9.28351 32045 ft 470 kts 143°
2026-05-08 21:20 43.66984 9.34112 32072 ft 473 kts 144°
2026-05-08 21:20 43.64454 9.37001 32277 ft 474 kts 144°
2026-05-08 21:20 43.61929 9.39884 32591 ft 472 kts 144°
2026-05-08 21:20 43.59399 9.42772 32886 ft 471 kts 144°
2026-05-08 21:21 43.56884 9.45639 33145 ft 470 kts 144°
2026-05-08 21:21 43.54370 9.48504 33373 ft 470 kts 144°
2026-05-08 21:21 43.51841 9.51382 33566 ft 471 kts 144°
2026-05-08 21:21 43.49308 9.54261 33744 ft 472 kts 144°
2026-05-08 21:22 43.46756 9.57160 33921 ft 473 kts 144°
2026-05-08 21:22 43.44215 9.60043 34095 ft 474 kts 144°
2026-05-08 21:22 43.41645 9.62955 34266 ft 475 kts 144°
2026-05-08 21:22 43.39105 9.65832 34427 ft 476 kts 144°
2026-05-08 21:23 43.36566 9.68704 34584 ft 476 kts 144°
2026-05-08 21:23 43.34067 9.71528 34737 ft 476 kts 144°
2026-05-08 21:23 43.31536 9.74385 34883 ft 477 kts 144°
2026-05-08 21:23 43.28953 9.77294 35019 ft 477 kts 144°
2026-05-08 21:24 43.26380 9.80179 35066 ft 478 kts 146°
2026-05-08 21:24 43.20847 9.85107 35073 ft 474 kts 157°
2026-05-08 21:25 43.14794 9.88389 35073 ft 467 kts 169°
2026-05-08 21:25 43.08452 9.89949 35074 ft 461 kts 178°
2026-05-08 21:26 43.02075 9.90527 35074 ft 458 kts 183°
2026-05-08 21:26 42.95722 9.90645 35074 ft 458 kts 184°
2026-05-08 21:27 42.89370 9.90772 35074 ft 458 kts 184°
2026-05-08 21:27 42.83017 9.90927 35073 ft 458 kts 184°
2026-05-08 21:28 42.76679 9.91095 35063 ft 458 kts 183°
2026-05-08 21:28 42.70323 9.91267 35055 ft 457 kts 183°
2026-05-08 21:29 42.64000 9.91440 35050 ft 456 kts 183°
2026-05-08 21:29 42.57661 9.91615 35048 ft 456 kts 183°
2026-05-08 21:30 42.51327 9.91791 35047 ft 456 kts 183°
2026-05-08 21:30 42.45001 9.91965 35047 ft 456 kts 183°
2026-05-08 21:31 42.38636 9.92140 35047 ft 456 kts 183°
2026-05-08 21:31 42.32267 9.92313 35047 ft 456 kts 183°
2026-05-08 21:32 42.25935 9.92484 35047 ft 456 kts 183°
2026-05-08 21:32 42.19508 9.92658 35046 ft 459 kts 184°
2026-05-08 21:33 42.13068 9.92831 35047 ft 460 kts 184°
2026-05-08 21:33 42.06514 9.93007 35047 ft 460 kts 184°
2026-05-08 21:34 42.00057 9.93181 35047 ft 460 kts 183°
2026-05-08 21:34 41.93682 9.93353 35047 ft 460 kts 183°
2026-05-08 21:35 41.87344 9.93525 35057 ft 460 kts 183°
2026-05-08 21:35 41.80958 9.93696 35065 ft 460 kts 183°
2026-05-08 21:36 41.74556 9.93868 35070 ft 460 kts 184°
2026-05-08 21:36 41.68167 9.94047 35073 ft 459 kts 184°
2026-05-08 21:37 41.61812 9.94212 35073 ft 459 kts 184°
2026-05-08 21:37 41.55446 9.94377 35074 ft 459 kts 184°
2026-05-08 21:38 41.49058 9.94544 35074 ft 459 kts 184°
2026-05-08 21:38 41.42661 9.94712 35074 ft 459 kts 184°
2026-05-08 21:39 41.36294 9.94879 35074 ft 459 kts 184°
2026-05-08 21:39 41.29878 9.95047 35074 ft 459 kts 184°
2026-05-08 21:40 41.23536 9.95214 35072 ft 459 kts 185°
2026-05-08 21:40 41.17171 9.95392 35074 ft 459 kts 185°
2026-05-08 21:41 41.07615 9.95632 35074 ft 459 kts 185°
2026-05-08 21:41 41.01218 9.95796 35074 ft 459 kts 185°
2026-05-08 21:42 40.94897 9.95960 35074 ft 459 kts 185°
2026-05-08 21:42 40.88500 9.96126 35074 ft 459 kts 185°
2026-05-08 21:43 40.82136 9.96291 35074 ft 459 kts 185°
2026-05-08 21:43 40.75737 9.96456 35074 ft 459 kts 185°
2026-05-08 21:44 40.69368 9.96633 35074 ft 460 kts 187°
2026-05-08 21:44 40.63009 9.96797 35074 ft 459 kts 187°
2026-05-08 21:45 40.56563 9.96954 35074 ft 459 kts 187°
2026-05-08 21:45 40.50207 9.97114 35074 ft 459 kts 187°
2026-05-08 21:46 40.43931 9.97276 35073 ft 454 kts 187°
2026-05-08 21:46 40.37596 9.97437 35073 ft 454 kts 187°
2026-05-08 21:47 40.34438 9.97517 34967 ft 454 kts 187°
2026-05-08 21:47 40.31255 9.97597 34712 ft 453 kts 187°
2026-05-08 21:47 40.27997 9.97680 34451 ft 450 kts 187°
2026-05-08 21:47 40.24691 9.97765 34108 ft 448 kts 187°
2026-05-08 21:48 40.21589 9.97849 33509 ft 449 kts 187°
2026-05-08 21:48 40.18452 9.97932 32819 ft 449 kts 188°
2026-05-08 21:48 40.15342 9.98008 32103 ft 449 kts 187°
2026-05-08 21:48 40.12223 9.98079 31296 ft 452 kts 187°
2026-05-08 21:49 40.09124 9.98149 30432 ft 455 kts 187°
2026-05-08 21:49 40.05745 9.98228 29456 ft 458 kts 186°
2026-05-08 21:49 40.02573 9.98307 28549 ft 460 kts 186°
2026-05-08 21:49 39.99384 9.98389 27656 ft 460 kts 186°
2026-05-08 21:50 39.96201 9.98475 27077 ft 453 kts 186°
2026-05-08 21:50 39.92882 9.98567 26500 ft 445 kts 186°
2026-05-08 21:50 39.89585 9.98655 25915 ft 439 kts 186°
2026-05-08 21:50 39.86245 9.98741 25312 ft 433 kts 186°
2026-05-08 21:51 39.82986 9.98823 24716 ft 427 kts 186°
2026-05-08 21:51 39.80009 9.98898 24168 ft 423 kts 186°
2026-05-08 21:51 39.77169 9.98969 23641 ft 419 kts 186°
2026-05-08 21:51 39.74249 9.99042 23088 ft 415 kts 186°
2026-05-08 21:52 39.71277 9.99121 22547 ft 411 kts 186°
2026-05-08 21:52 39.68351 9.99193 22013 ft 407 kts 186°
2026-05-08 21:52 39.65499 9.99262 21465 ft 404 kts 186°
2026-05-08 21:52 39.62539 9.98997 20846 ft 392 kts 198°
2026-05-08 21:53 39.59973 9.97930 20281 ft 380 kts 211°
2026-05-08 21:53 39.57649 9.96117 19696 ft 371 kts 221°
2026-05-08 21:53 39.55568 9.94097 19131 ft 368 kts 223°
2026-05-08 21:53 39.53551 9.92094 18577 ft 367 kts 223°
2026-05-08 21:54 39.51526 9.90087 18019 ft 366 kts 223°
2026-05-08 21:54 39.49513 9.88104 17471 ft 365 kts 222°
2026-05-08 21:54 39.47378 9.86009 16898 ft 363 kts 222°
2026-05-08 21:54 39.45251 9.83930 16330 ft 362 kts 222°
2026-05-08 21:55 39.43107 9.81836 15757 ft 360 kts 222°
2026-05-08 21:55 39.41010 9.79792 15196 ft 359 kts 222°
2026-05-08 21:55 39.39024 9.77859 14663 ft 358 kts 222°
2026-05-08 21:56 39.35051 9.73995 13602 ft 355 kts 222°
2026-05-08 21:56 39.33087 9.72086 13059 ft 353 kts 221°
2026-05-08 21:56 39.30979 9.70042 12490 ft 351 kts 221°
2026-05-08 21:56 39.28835 9.67964 11923 ft 348 kts 221°
2026-05-08 21:57 39.26701 9.65891 11360 ft 345 kts 222°
2026-05-08 21:57 39.24667 9.63913 11033 ft 333 kts 222°
2026-05-08 21:57 39.22838 9.62145 10863 ft 319 kts 223°
2026-05-08 21:57 39.21098 9.60460 10694 ft 306 kts 223°
2026-05-08 21:58 39.19415 9.58827 10527 ft 294 kts 223°
2026-05-08 21:58 39.17755 9.57216 10366 ft 282 kts 223°
2026-05-08 21:58 39.16090 9.55602 10216 ft 270 kts 224°
2026-05-08 21:58 39.14574 9.54132 10091 ft 261 kts 224°
2026-05-08 21:59 39.13067 9.52669 10076 ft 257 kts 224°
2026-05-08 21:59 39.11704 9.51107 10068 ft 247 kts 238°
2026-05-08 21:59 39.10812 9.49014 9970 ft 240 kts 256°
2026-05-08 21:59 39.10333 9.46692 9383 ft 249 kts 260°
2026-05-08 22:00 39.09921 9.44426 8753 ft 257 kts 259°
2026-05-08 22:00 39.09492 9.42085 8284 ft 259 kts 259°
2026-05-08 22:00 39.09037 9.39649 7833 ft 259 kts 258°
2026-05-08 22:00 39.08562 9.37128 7364 ft 260 kts 258°
2026-05-08 22:01 39.08117 9.34779 6938 ft 260 kts 257°
2026-05-08 22:01 39.07637 9.32253 6519 ft 259 kts 257°
2026-05-08 22:01 39.07196 9.29928 6125 ft 259 kts 258°
2026-05-08 22:01 39.06926 9.27618 5718 ft 259 kts 267°
2026-05-08 22:02 39.07080 9.25267 5311 ft 259 kts 289°
2026-05-08 22:02 39.08058 9.23335 5040 ft 256 kts 318°
2026-05-08 22:02 39.09533 9.22130 4801 ft 252 kts 330°
2026-05-08 22:02 39.11055 9.21017 4581 ft 246 kts 327°
2026-05-08 22:03 39.12461 9.19852 4356 ft 241 kts 323°
2026-05-08 22:03 39.13783 9.18543 3992 ft 242 kts 318°
2026-05-08 22:03 39.15023 9.17058 3505 ft 239 kts 314°
2026-05-08 22:03 39.16186 9.15611 3079 ft 225 kts 319°
2026-05-08 22:04 39.17378 9.14434 2802 ft 197 kts 322°
2026-05-08 22:04 39.18351 9.13367 2517 ft 175 kts 318°
2026-05-08 22:04 39.19217 9.12354 2179 ft 162 kts 318°
2026-05-08 22:04 39.20021 9.11404 1833 ft 157 kts 318°
2026-05-08 22:05 39.20863 9.10397 1413 ft 155 kts 318°
2026-05-08 22:05 39.21646 9.09450 1002 ft 154 kts 318°
2026-05-08 22:05 39.22453 9.08524 653 ft 150 kts 320°
2026-05-08 22:05 39.23244 9.07650 430 ft 150 kts 319°
2026-05-08 22:06 39.24014 9.06749 634 ft 151 kts 319°
2026-05-08 22:06 39.24815 9.05847 1036 ft 149 kts 320°
2026-05-08 22:06 39.25624 9.04983 1382 ft 150 kts 321°
2026-05-08 22:06 39.26476 9.04064 1521 ft 151 kts 321°
2026-05-08 22:07 39.27445 9.03431 1913 ft 151 kts 353°
2026-05-08 22:07 39.28515 9.03425 2280 ft 158 kts
2026-05-08 22:07 39.29732 9.03561 2708 ft 178 kts
2026-05-08 22:07 39.31036 9.03720 2983 ft 188 kts
2026-05-08 22:08 39.32361 9.03886 2987 ft 189 kts
2026-05-08 22:08 39.33660 9.04052 2991 ft 189 kts
2026-05-08 22:08 39.35101 9.04318 2991 ft 189 kts 13°
2026-05-08 22:08 39.36285 9.05302 2974 ft 188 kts 55°
2026-05-08 22:09 39.36868 9.06811 3003 ft 188 kts 69°
2026-05-08 22:09 39.37168 9.08448 2980 ft 187 kts 94°
2026-05-08 22:09 39.36679 9.09958 2984 ft 186 kts 132°
2026-05-08 22:09 39.35713 9.11073 3005 ft 186 kts 142°
2026-05-08 22:10 39.34703 9.12100 2997 ft 186 kts 142°
2026-05-08 22:10 39.33702 9.13175 2995 ft 186 kts 139°
2026-05-08 22:10 39.32688 9.14321 2994 ft 186 kts 140°
2026-05-08 22:10 39.31596 9.15507 2993 ft 188 kts 141°
2026-05-08 22:11 39.30473 9.16729 2994 ft 189 kts 139°
2026-05-08 22:11 39.29421 9.17952 2993 ft 189 kts 138°
2026-05-08 22:11 39.28360 9.19204 2993 ft 189 kts 137°
2026-05-08 22:11 39.27267 9.20493 2993 ft 189 kts 137°
2026-05-08 22:12 39.26183 9.21772 2993 ft 189 kts 137°
2026-05-08 22:12 39.25083 9.23071 2993 ft 189 kts 137°
2026-05-08 22:12 39.23986 9.24368 2990 ft 190 kts 139°
2026-05-08 22:12 39.22926 9.25617 2994 ft 191 kts 138°
2026-05-08 22:13 39.21867 9.26865 2993 ft 191 kts 138°
2026-05-08 22:13 39.20792 9.28134 2993 ft 191 kts 138°
2026-05-08 22:13 39.19695 9.29426 2993 ft 191 kts 138°
2026-05-08 22:13 39.18649 9.30659 2993 ft 191 kts 138°
2026-05-08 22:14 39.17653 9.31833 2993 ft 191 kts 138°
2026-05-08 22:14 39.16661 9.33003 2993 ft 191 kts 138°
2026-05-08 22:14 39.15584 9.34072 2979 ft 190 kts 157°
2026-05-08 22:14 39.14248 9.34181 2978 ft 187 kts 199°
2026-05-08 22:15 39.13206 9.33132 2985 ft 184 kts 240°
2026-05-08 22:15 39.12886 9.31523 3007 ft 183 kts 265°
2026-05-08 22:15 39.12773 9.29881 3001 ft 183 kts 264°
2026-05-08 22:15 39.12617 9.28198 2996 ft 184 kts 263°
2026-05-08 22:16 39.12454 9.26540 2994 ft 184 kts 263°
2026-05-08 22:16 39.12292 9.24909 2994 ft 184 kts 263°
2026-05-08 22:16 39.12128 9.23265 2994 ft 183 kts 264°
2026-05-08 22:16 39.12003 9.21652 2936 ft 179 kts 275°
2026-05-08 22:17 39.12458 9.20197 2706 ft 170 kts 308°
2026-05-08 22:17 39.13212 9.19182 2760 ft 151 kts 317°
2026-05-08 22:17 39.14007 9.18298 2682 ft 150 kts 319°
2026-05-08 22:17 39.14796 9.17431 2482 ft 149 kts 319°
2026-05-08 22:18 39.15580 9.16546 2284 ft 148 kts 318°
2026-05-08 22:18 39.16347 9.15661 2087 ft 148 kts 319°
2026-05-08 22:18 39.17110 9.14772 1890 ft 148 kts 319°
2026-05-08 22:19 39.19641 9.11820 1240 ft 153 kts 319°
2026-05-08 22:19 39.20449 9.10881 1032 ft 153 kts 318°
2026-05-08 22:19 39.21268 9.09930 822 ft 153 kts 317°
2026-05-08 22:20 39.22061 9.09011 618 ft 152 kts 317°
2026-05-08 22:20 39.22835 9.08110 426 ft 150 kts 317°
2026-05-08 22:20 39.23618 9.07198 261 ft 149 kts 317°
2026-05-08 22:20 39.24394 9.06294 55 ft 148 kts 319°
2026-05-08 22:21 39.25067 9.05529 20 ft 88 kts 318°
2026-05-08 22:21 39.25301 9.05253 20 ft 12 kts 318°
2026-05-08 22:21 39.25464 9.05063 20 ft 36 kts 317°
2026-05-08 22:21 39.25650 9.04868 20 ft 26 kts 339°
2026-05-08 22:22 39.25751 9.04870 20 ft 0 kts 32°
2026-05-08 22:23 39.25760 9.04877 20 ft 5 kts 40°
2026-05-08 22:23 39.25772 9.04954 20 ft 11 kts 107°
2026-05-08 22:23 39.25711 9.05054 20 ft 16 kts 134°
2026-05-08 22:23 39.25616 9.05173 20 ft 19 kts 140°
2026-05-08 22:24 39.25501 9.05297 20 ft 21 kts 141°
2026-05-08 22:24 39.25414 9.05448 20 ft 20 kts 109°
2026-05-08 22:24 39.25375 9.05618 20 ft 17 kts 119°
2026-05-08 22:24 39.25341 9.05730 20 ft 10 kts 113°
2026-05-08 22:25 39.25319 9.05798 20 ft 0 kts 112°
2026-05-08 22:25 39.25317 9.05805 20 ft 1 kts 111°
2026-05-08 22:25 39.25317 9.05806 20 ft 0 kts 111°